WZZ121 LIPX-EDDH

Flight info

Callsign WZZ121
Flight time 1h 32m
Altitude 34000
Route OTZOM Y480 UPXUF L612 ADOSA DCT BORMI DCT BRENO DCT KONIN DCT EXITI DCT ABGUS DCT DIRBO/N0397F230 T902 RARUP RARUP3P
Aircraft A321/M-SDE3FGHIRWY/LB1

Departure

Time 2026-04-26 14:59
Airport Verona Villafranca Valerio Catullo Airport (LIPX)

Arrival

Time 2026-04-26 16:32
Airport Hamburg Helmut Schmidt Airport (EDDH)
Time Latitude Longitude Altitude Speed Heading
2026-04-26 14:35 45.40412 10.90540 237 ft 0 kts 135°
2026-04-26 14:52 45.40405 10.90549 237 ft 2 kts 135°
2026-04-26 14:52 45.40388 10.90569 237 ft 4 kts 156°
2026-04-26 14:52 45.40347 10.90546 237 ft 9 kts 219°
2026-04-26 14:53 45.40295 10.90474 237 ft 11 kts 225°
2026-04-26 14:53 45.40264 10.90380 237 ft 11 kts 289°
2026-04-26 14:53 45.40318 10.90294 237 ft 12 kts 313°
2026-04-26 14:53 45.40341 10.90176 236 ft 13 kts 289°
2026-04-26 14:54 45.40373 10.90041 237 ft 15 kts 263°
2026-04-26 14:54 45.40325 10.89928 238 ft 12 kts 257°
2026-04-26 14:54 45.40371 10.89834 238 ft 13 kts 314°
2026-04-26 14:54 45.40404 10.89732 237 ft 10 kts 236°
2026-04-26 14:55 45.40359 10.89652 237 ft 11 kts 227°
2026-04-26 14:55 45.40293 10.89556 237 ft 16 kts 225°
2026-04-26 14:55 45.40207 10.89430 237 ft 20 kts 226°
2026-04-26 14:55 45.40100 10.89274 237 ft 24 kts 225°
2026-04-26 14:56 45.39975 10.89091 237 ft 27 kts 225°
2026-04-26 14:56 45.39836 10.88889 237 ft 30 kts 225°
2026-04-26 14:56 45.39686 10.88672 237 ft 31 kts 225°
2026-04-26 14:56 45.39537 10.88455 237 ft 31 kts 226°
2026-04-26 14:57 45.39388 10.88240 237 ft 30 kts 225°
2026-04-26 14:57 45.39241 10.88025 238 ft 30 kts 226°
2026-04-26 14:57 45.39095 10.87811 238 ft 30 kts 226°
2026-04-26 14:57 45.38954 10.87607 238 ft 25 kts 225°
2026-04-26 14:58 45.38858 10.87512 238 ft 14 kts 165°
2026-04-26 14:58 45.38780 10.87597 239 ft 14 kts 137°
2026-04-26 14:58 45.38786 10.87709 240 ft 13 kts 49°
2026-04-26 14:58 45.38850 10.87807 239 ft 15 kts 46°
2026-04-26 14:59 45.39037 10.88077 238 ft 73 kts 46°
2026-04-26 14:59 45.39551 10.88821 239 ft 135 kts 44°
2026-04-26 14:59 45.40314 10.89937 421 ft 165 kts 47°
2026-04-26 14:59 45.40824 10.90718 891 ft 163 kts 53°
2026-04-26 15:00 45.41100 10.92784 1678 ft 166 kts 109°
2026-04-26 15:00 45.40499 10.94210 2151 ft 179 kts 125°
2026-04-26 15:00 45.39740 10.95756 2392 ft 201 kts 124°
2026-04-26 15:00 45.38946 10.97507 2633 ft 221 kts 121°
2026-04-26 15:01 45.38122 10.99430 3108 ft 230 kts 121°
2026-04-26 15:01 45.37304 11.01359 3860 ft 231 kts 121°
2026-04-26 15:01 45.36468 11.03331 4599 ft 233 kts 120°
2026-04-26 15:01 45.35617 11.05305 5305 ft 236 kts 124°
2026-04-26 15:02 45.34375 11.06814 5935 ft 241 kts 159°
2026-04-26 15:02 45.32714 11.07012 6563 ft 245 kts 195°
2026-04-26 15:02 45.31251 11.05809 7163 ft 248 kts 230°
2026-04-26 15:02 45.30528 11.03616 7760 ft 250 kts 265°
2026-04-26 15:03 45.30832 11.01217 8379 ft 251 kts 301°
2026-04-26 15:03 45.32020 10.99355 8764 ft 265 kts 327°
2026-04-26 15:03 45.33778 10.98373 9063 ft 281 kts 355°
2026-04-26 15:03 45.35747 10.98495 9639 ft 287 kts
2026-04-26 15:04 45.37744 10.98782 10276 ft 291 kts
2026-04-26 15:04 45.39833 10.99086 10467 ft 313 kts
2026-04-26 15:04 45.42045 10.99404 10588 ft 334 kts
2026-04-26 15:04 45.44424 10.99747 10833 ft 350 kts
2026-04-26 15:05 45.46864 11.00102 11379 ft 355 kts
2026-04-26 15:05 45.47696 11.00223 11576 ft 356 kts
2026-04-26 15:05 45.51825 11.00820 12602 ft 362 kts
2026-04-26 15:05 45.54344 11.01185 13209 ft 366 kts
2026-04-26 15:06 45.56889 11.01552 13835 ft 369 kts
2026-04-26 15:06 45.59453 11.01917 14392 ft 372 kts
2026-04-26 15:06 45.62044 11.02283 14942 ft 376 kts
2026-04-26 15:06 45.64648 11.02732 15509 ft 379 kts
2026-04-26 15:07 45.69835 11.04560 16654 ft 386 kts 12°
2026-04-26 15:07 45.72452 11.05494 17222 ft 389 kts 12°
2026-04-26 15:07 45.75094 11.06434 17773 ft 392 kts 13°
2026-04-26 15:08 45.77752 11.07384 18327 ft 396 kts 13°
2026-04-26 15:08 45.80468 11.08067 18787 ft 397 kts
2026-04-26 15:08 45.83228 11.08450 19271 ft 400 kts
2026-04-26 15:08 45.86019 11.08820 19776 ft 403 kts
2026-04-26 15:09 45.88821 11.09187 20244 ft 407 kts
2026-04-26 15:09 45.91647 11.09559 20711 ft 410 kts
2026-04-26 15:09 45.94472 11.09932 21181 ft 412 kts
2026-04-26 15:09 45.97364 11.10320 21651 ft 415 kts
2026-04-26 15:10 46.00208 11.10708 22098 ft 417 kts
2026-04-26 15:10 46.01184 11.10842 22253 ft 418 kts
2026-04-26 15:10 46.06025 11.11502 22959 ft 423 kts
2026-04-26 15:10 46.08960 11.11900 23383 ft 425 kts
2026-04-26 15:11 46.10956 11.12173 23674 ft 427 kts
2026-04-26 15:11 46.13921 11.12581 24056 ft 430 kts
2026-04-26 15:11 46.16907 11.12990 24435 ft 432 kts
2026-04-26 15:11 46.19902 11.13401 24819 ft 433 kts
2026-04-26 15:12 46.22908 11.13814 25205 ft 435 kts
2026-04-26 15:12 46.25933 11.14228 25559 ft 437 kts
2026-04-26 15:12 46.28959 11.14641 25921 ft 438 kts
2026-04-26 15:12 46.32000 11.15060 26260 ft 440 kts
2026-04-26 15:13 46.35022 11.15479 26610 ft 442 kts
2026-04-26 15:13 46.38089 11.15903 26959 ft 444 kts
2026-04-26 15:13 46.41168 11.16327 27144 ft 446 kts
2026-04-26 15:13 46.44273 11.16755 27469 ft 448 kts
2026-04-26 15:14 46.47384 11.17187 27798 ft 449 kts
2026-04-26 15:14 46.50498 11.17619 28112 ft 451 kts
2026-04-26 15:14 46.53628 11.18052 28425 ft 453 kts
2026-04-26 15:14 46.56770 11.18485 28737 ft 455 kts
2026-04-26 15:15 46.59927 11.18920 29036 ft 457 kts
2026-04-26 15:15 46.63096 11.19358 29381 ft 458 kts
2026-04-26 15:15 46.66280 11.19799 29755 ft 459 kts
2026-04-26 15:15 46.69454 11.20243 30217 ft 458 kts
2026-04-26 15:16 46.72621 11.20686 30606 ft 456 kts
2026-04-26 15:16 46.75783 11.21130 30991 ft 456 kts
2026-04-26 15:16 46.78932 11.21572 31407 ft 455 kts
2026-04-26 15:16 46.82079 11.22016 31786 ft 453 kts
2026-04-26 15:17 46.85182 11.22453 32151 ft 453 kts
2026-04-26 15:17 46.87300 11.22751 32379 ft 453 kts
2026-04-26 15:17 46.91447 11.23332 32865 ft 452 kts
2026-04-26 15:17 46.94567 11.23771 33288 ft 448 kts
2026-04-26 15:18 46.97671 11.24209 33601 ft 448 kts
2026-04-26 15:18 47.00777 11.24647 33894 ft 449 kts
2026-04-26 15:18 47.03888 11.25085 34093 ft 449 kts
2026-04-26 15:18 47.06988 11.25526 34125 ft 446 kts
2026-04-26 15:19 47.13161 11.26397 34130 ft 445 kts
2026-04-26 15:19 47.19323 11.27266 34142 ft 445 kts
2026-04-26 15:20 47.25479 11.28146 34153 ft 445 kts
2026-04-26 15:20 47.31636 11.29031 34138 ft 444 kts
2026-04-26 15:21 47.37784 11.29909 34139 ft 444 kts
2026-04-26 15:21 47.43938 11.30780 34136 ft 444 kts
2026-04-26 15:22 47.50069 11.31663 34153 ft 446 kts
2026-04-26 15:22 47.56250 11.32555 34148 ft 447 kts
2026-04-26 15:23 47.62441 11.33447 34162 ft 447 kts
2026-04-26 15:23 47.68650 11.34343 34194 ft 448 kts
2026-04-26 15:24 47.74866 11.35243 34196 ft 448 kts
2026-04-26 15:24 47.81083 11.36146 34206 ft 448 kts
2026-04-26 15:25 47.86244 11.36872 34219 ft 448 kts 360°
2026-04-26 15:25 47.93455 11.37224 34240 ft 445 kts 355°
2026-04-26 15:26 47.99637 11.37186 34236 ft 444 kts 355°
2026-04-26 15:26 48.05824 11.37230 34233 ft 444 kts 356°
2026-04-26 15:27 48.12013 11.37367 34243 ft 445 kts 356°
2026-04-26 15:27 48.18162 11.37531 34235 ft 445 kts 356°
2026-04-26 15:28 48.24366 11.37678 34229 ft 445 kts 356°
2026-04-26 15:28 48.30560 11.37814 34224 ft 445 kts 356°
2026-04-26 15:29 48.36751 11.37954 34223 ft 445 kts 356°
2026-04-26 15:30 48.49134 11.38230 34221 ft 445 kts 356°
2026-04-26 15:30 48.55338 11.38363 34236 ft 445 kts 356°
2026-04-26 15:31 48.64599 11.38589 34235 ft 446 kts 356°
2026-04-26 15:32 48.72912 11.38786 34230 ft 447 kts 356°
2026-04-26 15:32 48.80141 11.38956 34240 ft 447 kts 357°
2026-04-26 15:33 48.86358 11.39091 34238 ft 447 kts 357°
2026-04-26 15:33 48.92588 11.39229 34236 ft 447 kts 357°
2026-04-26 15:34 48.98806 11.39374 34256 ft 447 kts 357°
2026-04-26 15:34 49.05018 11.39532 34248 ft 446 kts 357°
2026-04-26 15:35 49.11186 11.39688 34250 ft 446 kts 357°
2026-04-26 15:35 49.17400 11.39819 34256 ft 446 kts 357°
2026-04-26 15:36 49.23613 11.39949 34263 ft 446 kts 357°
2026-04-26 15:36 49.29817 11.40096 34260 ft 446 kts 357°
2026-04-26 15:37 49.36034 11.40252 34262 ft 446 kts 357°
2026-04-26 15:37 49.42242 11.40397 34275 ft 446 kts 357°
2026-04-26 15:38 49.48444 11.40531 34270 ft 445 kts 357°
2026-04-26 15:38 49.54600 11.40678 34268 ft 445 kts 357°
2026-04-26 15:39 49.60735 11.40067 34270 ft 441 kts 351°
2026-04-26 15:39 49.65859 11.39318 34285 ft 441 kts 351°
2026-04-26 15:40 49.72961 11.38273 34275 ft 441 kts 351°
2026-04-26 15:40 49.79088 11.37372 34272 ft 441 kts 351°
2026-04-26 15:41 49.85201 11.36470 34270 ft 441 kts 351°
2026-04-26 15:41 49.91313 11.35568 34284 ft 441 kts 351°
2026-04-26 15:42 49.97421 11.34662 34283 ft 440 kts 351°
2026-04-26 15:42 50.03479 11.33748 34280 ft 440 kts 351°
2026-04-26 15:43 50.09579 11.32833 34296 ft 440 kts 351°
2026-04-26 15:44 50.18724 11.31468 34291 ft 439 kts 351°
2026-04-26 15:44 50.27805 11.30107 34290 ft 438 kts 351°
2026-04-26 15:45 50.36921 11.28732 34301 ft 438 kts 351°
2026-04-26 15:46 50.46014 11.27365 34304 ft 437 kts 351°
2026-04-26 15:46 50.51045 11.26599 34301 ft 437 kts 351°
2026-04-26 15:47 50.61121 11.25064 34305 ft 437 kts 351°
2026-04-26 15:48 50.67180 11.24140 34296 ft 437 kts 351°
2026-04-26 15:48 50.73232 11.23218 34300 ft 437 kts 351°
2026-04-26 15:49 50.79282 11.22285 34310 ft 437 kts 351°
2026-04-26 15:49 50.85335 11.21349 34318 ft 437 kts 351°
2026-04-26 15:50 50.91382 11.20418 34321 ft 436 kts 352°
2026-04-26 15:50 50.97424 11.19483 34317 ft 436 kts 351°
2026-04-26 15:51 51.03422 11.18545 34310 ft 436 kts 351°
2026-04-26 15:51 51.09459 11.17598 34323 ft 435 kts 352°
2026-04-26 15:52 51.15491 11.16648 34317 ft 435 kts 352°
2026-04-26 15:52 51.21526 11.15717 34319 ft 435 kts 352°
2026-04-26 15:53 51.27525 11.14781 34319 ft 435 kts 352°
2026-04-26 15:53 51.33546 11.13825 34326 ft 434 kts 351°
2026-04-26 15:54 51.39565 11.12871 34321 ft 434 kts 351°
2026-04-26 15:54 51.45568 11.11916 34320 ft 433 kts 351°
2026-04-26 15:55 51.51560 11.10899 34311 ft 433 kts 350°
2026-04-26 15:55 51.57541 11.09738 34322 ft 433 kts 349°
2026-04-26 15:56 51.63525 11.08539 34321 ft 434 kts 349°
2026-04-26 15:56 51.69526 11.07361 34318 ft 434 kts 349°
2026-04-26 15:57 51.75480 11.06203 34309 ft 434 kts 349°
2026-04-26 15:57 51.81474 11.05031 33933 ft 431 kts 349°
2026-04-26 15:57 51.83471 11.04642 33475 ft 432 kts 349°
2026-04-26 15:58 51.87449 11.03866 32549 ft 433 kts 349°
2026-04-26 15:58 51.90442 11.03280 31848 ft 434 kts 349°
2026-04-26 15:58 51.93444 11.02690 31203 ft 434 kts 349°
2026-04-26 15:58 51.96428 11.02101 30713 ft 430 kts 349°
2026-04-26 15:59 51.99346 11.01523 30194 ft 426 kts 349°
2026-04-26 15:59 52.02274 11.00942 29634 ft 422 kts 349°
2026-04-26 15:59 52.05176 11.00369 29062 ft 419 kts 349°
2026-04-26 15:59 52.08054 10.99800 28488 ft 415 kts 349°
2026-04-26 16:00 52.10914 10.99230 27925 ft 412 kts 349°
2026-04-26 16:00 52.13750 10.98667 27366 ft 409 kts 349°
2026-04-26 16:00 52.16565 10.98110 26810 ft 406 kts 349°
2026-04-26 16:00 52.19362 10.97555 26267 ft 403 kts 349°
2026-04-26 16:01 52.22140 10.97004 25734 ft 401 kts 349°
2026-04-26 16:01 52.23974 10.96640 25439 ft 399 kts 349°
2026-04-26 16:01 52.26727 10.96089 25281 ft 399 kts 349°
2026-04-26 16:01 52.29482 10.95533 25219 ft 398 kts 349°
2026-04-26 16:02 52.32219 10.94985 24738 ft 395 kts 349°
2026-04-26 16:02 52.34946 10.94440 24211 ft 395 kts 349°
2026-04-26 16:02 52.37669 10.93894 23696 ft 393 kts 349°
2026-04-26 16:02 52.39463 10.93534 23351 ft 392 kts 349°
2026-04-26 16:03 52.43063 10.92810 22709 ft 388 kts 349°
2026-04-26 16:03 52.45732 10.92268 22252 ft 384 kts 349°
2026-04-26 16:03 52.48374 10.91734 21798 ft 381 kts 349°
2026-04-26 16:03 52.50999 10.91208 21361 ft 378 kts 349°
2026-04-26 16:04 52.53569 10.90695 20944 ft 374 kts 349°
2026-04-26 16:04 52.56141 10.90179 20504 ft 370 kts 349°
2026-04-26 16:04 52.58680 10.89666 20165 ft 364 kts 349°
2026-04-26 16:04 52.61177 10.89159 19784 ft 359 kts 349°
2026-04-26 16:05 52.63643 10.88655 19350 ft 356 kts 349°
2026-04-26 16:05 52.66092 10.88157 18904 ft 353 kts 349°
2026-04-26 16:05 52.68521 10.87662 18448 ft 350 kts 349°
2026-04-26 16:05 52.70928 10.87169 17952 ft 348 kts 349°
2026-04-26 16:06 52.73318 10.86679 17469 ft 345 kts 349°
2026-04-26 16:06 52.75692 10.86191 16996 ft 342 kts 349°
2026-04-26 16:06 52.77983 10.85319 16525 ft 335 kts 340°
2026-04-26 16:06 52.80208 10.84194 16044 ft 333 kts 340°
2026-04-26 16:07 52.82423 10.83079 15570 ft 331 kts 340°
2026-04-26 16:07 52.84619 10.81976 15103 ft 329 kts 340°
2026-04-26 16:07 52.86800 10.80881 14643 ft 326 kts 340°
2026-04-26 16:07 52.88970 10.79786 14198 ft 324 kts 340°
2026-04-26 16:08 52.91096 10.78708 13718 ft 322 kts 341°
2026-04-26 16:08 52.93234 10.77622 13237 ft 320 kts 341°
2026-04-26 16:08 52.95354 10.76543 12764 ft 317 kts 341°
2026-04-26 16:08 52.97459 10.75474 12300 ft 315 kts 341°
2026-04-26 16:09 52.99543 10.74414 11856 ft 312 kts 341°
2026-04-26 16:09 53.01616 10.73358 11424 ft 310 kts 341°
2026-04-26 16:09 53.03668 10.72309 11280 ft 309 kts 341°
2026-04-26 16:09 53.05730 10.71257 11293 ft 311 kts 341°
2026-04-26 16:10 53.07816 10.70193 11293 ft 312 kts 341°
2026-04-26 16:10 53.09892 10.69134 11293 ft 312 kts 341°
2026-04-26 16:10 53.11926 10.68094 11079 ft 307 kts 341°
2026-04-26 16:10 53.13936 10.67065 10927 ft 295 kts 341°
2026-04-26 16:11 53.15864 10.66076 10813 ft 284 kts 341°
2026-04-26 16:11 53.17717 10.65122 10637 ft 276 kts 341°
2026-04-26 16:11 53.19537 10.64185 10345 ft 273 kts 341°
2026-04-26 16:11 53.21345 10.63254 10002 ft 271 kts 341°
2026-04-26 16:12 53.23144 10.62329 9617 ft 270 kts 341°
2026-04-26 16:12 53.24935 10.61405 9233 ft 269 kts 341°
2026-04-26 16:12 53.28504 10.59550 8505 ft 267 kts 341°
2026-04-26 16:13 53.30272 10.58632 8145 ft 266 kts 341°
2026-04-26 16:13 53.32036 10.57717 7800 ft 265 kts 341°
2026-04-26 16:13 53.33776 10.56817 7443 ft 265 kts 341°
2026-04-26 16:13 53.35557 10.55898 7080 ft 264 kts 341°
2026-04-26 16:14 53.37292 10.54999 6732 ft 264 kts 341°
2026-04-26 16:14 53.39044 10.54088 6355 ft 264 kts 341°
2026-04-26 16:14 53.42539 10.52264 5630 ft 263 kts 341°
2026-04-26 16:15 53.44283 10.51357 5273 ft 262 kts 341°
2026-04-26 16:15 53.46024 10.50448 4934 ft 262 kts 341°
2026-04-26 16:15 53.47762 10.49541 4567 ft 261 kts 342°
2026-04-26 16:16 53.51214 10.47742 4000 ft 257 kts 342°
2026-04-26 16:16 53.52892 10.46874 3997 ft 246 kts 342°
2026-04-26 16:16 53.54503 10.46033 4004 ft 240 kts 342°
2026-04-26 16:16 53.56095 10.45194 4002 ft 239 kts 342°
2026-04-26 16:17 53.57685 10.44359 4000 ft 240 kts 342°
2026-04-26 16:17 53.59277 10.43525 4001 ft 239 kts 342°
2026-04-26 16:17 53.60867 10.42688 4003 ft 239 kts 341°
2026-04-26 16:17 53.62459 10.41849 4002 ft 239 kts 342°
2026-04-26 16:18 53.64047 10.41012 3999 ft 238 kts 340°
2026-04-26 16:18 53.67203 10.39420 4004 ft 243 kts 347°
2026-04-26 16:19 53.70528 10.41268 4001 ft 233 kts 48°
2026-04-26 16:19 53.71486 10.43374 3997 ft 219 kts 54°
2026-04-26 16:19 53.72924 10.46841 4017 ft 214 kts 54°
2026-04-26 16:20 53.74047 10.49558 4009 ft 213 kts 54°
2026-04-26 16:20 53.75744 10.53662 4012 ft 213 kts 54°
2026-04-26 16:20 53.76591 10.55714 4010 ft 213 kts 54°
2026-04-26 16:21 53.77437 10.57765 4010 ft 213 kts 54°
2026-04-26 16:21 53.78288 10.59815 4013 ft 214 kts 52°
2026-04-26 16:21 53.79440 10.61323 4012 ft 211 kts 17°
2026-04-26 16:21 53.80838 10.61418 4002 ft 194 kts 339°
2026-04-26 16:22 53.81864 10.60132 4005 ft 183 kts 299°
2026-04-26 16:22 53.82172 10.58102 4016 ft 183 kts 270°
2026-04-26 16:22 53.82119 10.55966 4010 ft 182 kts 265°
2026-04-26 16:22 53.82006 10.53825 4010 ft 182 kts 265°
2026-04-26 16:23 53.81884 10.51693 4008 ft 182 kts 264°
2026-04-26 16:23 53.81762 10.49552 4014 ft 183 kts 264°
2026-04-26 16:23 53.81636 10.47414 4009 ft 182 kts 264°
2026-04-26 16:23 53.81512 10.45289 4005 ft 181 kts 264°
2026-04-26 16:24 53.81386 10.43164 4009 ft 182 kts 264°
2026-04-26 16:24 53.81261 10.41037 4036 ft 182 kts 264°
2026-04-26 16:24 53.81136 10.38913 4019 ft 181 kts 264°
2026-04-26 16:24 53.81010 10.36792 4008 ft 182 kts 264°
2026-04-26 16:25 53.80618 10.34775 3999 ft 183 kts 239°
2026-04-26 16:25 53.79827 10.33090 3994 ft 182 kts 232°
2026-04-26 16:25 53.79020 10.31431 3994 ft 183 kts 231°
2026-04-26 16:25 53.78207 10.29761 3998 ft 184 kts 232°
2026-04-26 16:26 53.77673 10.28649 4003 ft 183 kts 232°
2026-04-26 16:26 53.76869 10.26981 4001 ft 182 kts 232°
2026-04-26 16:26 53.76062 10.25332 4001 ft 182 kts 232°
2026-04-26 16:26 53.75003 10.23172 3993 ft 171 kts 231°
2026-04-26 16:27 53.74504 10.22155 3998 ft 168 kts 231°
2026-04-26 16:27 53.73758 10.20635 4003 ft 165 kts 232°
2026-04-26 16:27 53.73033 10.19155 4004 ft 166 kts 231°
2026-04-26 16:27 53.72300 10.17658 4033 ft 164 kts 231°
2026-04-26 16:28 53.71577 10.16184 4007 ft 162 kts 231°
2026-04-26 16:28 53.70852 10.14752 3725 ft 157 kts 231°
2026-04-26 16:28 53.70168 10.13390 3373 ft 148 kts 232°
2026-04-26 16:28 53.69517 10.12073 2970 ft 146 kts 232°
2026-04-26 16:29 53.68877 10.10757 2530 ft 146 kts 232°
2026-04-26 16:29 53.68224 10.09420 2034 ft 148 kts 232°
2026-04-26 16:29 53.67573 10.08085 1566 ft 147 kts 233°
2026-04-26 16:29 53.66934 10.06774 1155 ft 144 kts 232°
2026-04-26 16:30 53.66307 10.05483 857 ft 142 kts 234°
2026-04-26 16:30 53.65684 10.04188 694 ft 143 kts 233°
2026-04-26 16:30 53.65046 10.02885 497 ft 144 kts 233°
2026-04-26 16:30 53.64407 10.01617 351 ft 144 kts 232°
2026-04-26 16:31 53.63765 10.00321 134 ft 143 kts 234°
2026-04-26 16:31 53.63150 9.99062 49 ft 127 kts 234°
2026-04-26 16:31 53.62676 9.98092 53 ft 91 kts 230°
2026-04-26 16:31 53.62334 9.97397 53 ft 64 kts 231°
2026-04-26 16:32 53.62088 9.96908 52 ft 50 kts 230°
2026-04-26 16:32 53.61899 9.96525 53 ft 27 kts 229°
2026-04-26 16:32 53.61750 9.96420 52 ft 15 kts 179°
2026-04-26 16:32 53.61694 9.96581 51 ft 24 kts 89°
2026-04-26 16:33 53.61780 9.96784 51 ft 26 kts 51°
2026-04-26 16:33 53.61918 9.97061 51 ft 33 kts 49°
2026-04-26 16:33 53.62058 9.97344 51 ft 31 kts 50°
2026-04-26 16:33 53.62194 9.97620 51 ft 31 kts 51°
2026-04-26 16:34 53.62332 9.97893 51 ft 30 kts 49°
2026-04-26 16:34 53.62453 9.98175 48 ft 30 kts 70°
2026-04-26 16:34 53.62499 9.98514 51 ft 30 kts 79°
2026-04-26 16:34 53.62521 9.98731 51 ft 17 kts 80°
2026-04-26 16:35 53.62545 9.98957 51 ft 21 kts 79°
2026-04-26 16:35 53.62575 9.99214 51 ft 23 kts 79°
2026-04-26 16:35 53.62609 9.99496 47 ft 25 kts 79°
2026-04-26 16:35 53.62635 9.99725 52 ft 12 kts 78°
2026-04-26 16:36 53.62636 9.99734 52 ft 0 kts 78°
2026-04-26 16:37 53.62636 9.99735 52 ft 0 kts 78°
2026-04-26 16:37 53.62639 9.99755 50 ft 5 kts 78°
2026-04-26 16:37 53.62666 9.99830 53 ft 8 kts 32°
2026-04-26 16:37 53.62718 9.99884 53 ft 11 kts 31°
2026-04-26 16:38 53.62804 9.99968 52 ft 18 kts 30°
2026-04-26 16:38 53.62901 10.00082 51 ft 11 kts 34°
2026-04-26 16:38 53.62903 10.00175 49 ft 9 kts 118°
2026-04-26 16:38 53.62889 10.00212 51 ft 0 kts 121°